Location: Unspecified
(35.6961°N, 0.0000°E)
Time: 00:45:42
(UTC+00:00)

DX 1 - Visible Passes

Search period start: 18 June 2019 00:00
Search period end: 28 June 2019 00:00
Orbit: 620 x 630 km, 98.4° (Epoch: 17 June)

Date Brightness Start Highest point End Pass type
(mag) Time Alt. Az. Time Alt. Az. Time Alt. Az.
18 Jun ? 02:06:56 10° E 02:08:59 13° ENE 02:11:03 10° NE visible
18 Jun ? 03:40:26 10° S 03:44:40 50° W 03:48:56 10° NNW visible
19 Jun ? 02:24:25 10° ESE 02:27:40 21° ENE 02:30:55 10° NNE visible
19 Jun ? 03:59:45 10° SSW 04:03:36 30° W 04:07:28 10° NW visible
20 Jun ? 02:42:29 10° SE 02:46:24 33° ENE 02:50:18 10° N visible
21 Jun ? 03:00:55 10° SSE 03:05:10 53° ENE 03:09:27 10° N visible
22 Jun ? 03:19:36 10° SSE 03:23:59 89° E 03:28:23 10° NNW visible
23 Jun ? 02:05:29 10° E 02:07:13 12° ENE 02:08:57 10° NE visible
23 Jun ? 03:38:35 10° S 03:42:51 54° W 03:47:10 10° NNW visible
24 Jun ? 02:22:46 10° ESE 02:25:53 19° ENE 02:28:59 10° NNE visible
24 Jun ? 03:57:50 10° SSW 04:01:46 32° W 04:05:44 10° NW visible
25 Jun ? 02:40:47 10° SE 02:44:36 30° ENE 02:48:25 10° N visible
25 Jun ? 04:17:30 10° SW 04:20:44 20° W 04:23:59 10° NW visible
26 Jun ? 02:59:09 10° SSE 03:03:22 49° ENE 03:07:36 10° N visible
27 Jun ? 03:17:48 10° SSE 03:22:11 82° ENE 03:26:34 10° N visible
